SPOT 3

Satellite information

Favourite Embed

Satellite Type and Status

PAYLOADIN ORBIT

Key statistics

Satellite SPOT 3 at a glance.

Uptime

11711

Days in orbit

Revolutions

≈ 14.2

Per day

Orbit

SSO

Sun Synchronous Orbit

Inclination

98.9

Latest

Satellite identification and parameters

Extended collection of information and parameters for SPOT 3.

Object identification

Identified? True

Debris? False

Object name: SPOT 3

International designator: 1993-061A

Object number (NORAD): 22823

Object ID (CCSDS): 22823

Country: FRANCE (FR)

Current information (Y/N): Y

RCS size: LARGE

Orbital parameters

Period: 101.409 minutes

Inclination: 98.8934 deg

SMA: 7203.505 km

Apoapsis: 837.073 km

Periapsis: 813.667 km

RAAN: 350.144 deg

Eccentricy: 0.00162465

Argument of periapsis: 211.6878 deg

Mean anomaly: 148.3321 deg

Mean motion: 14.1999548 rev/day

Mean motion (dot): 0.00000227 rev/day2

B* drag term: 0.00012776101 1/REarth

Two-line elements (TLE)

Creation date: Oct. 19, 2025, 2:20 a.m.

Reference frame: TEME

Reference center: EARTH

Epoch: Oct. 18, 2025, 6:37 p.m. UTC

TLE line 0: 0 SPOT 3

TLE line 1: 1 22823U 93061A 25291.77614893 .00000227 00000-0 12776-3 0 9997

TLE line 2: 2 22823 98.8934 350.1440 0016246 211.6878 148.3321 14.19995480660317

Live tracking on map

Real-time ground track for satellite SPOT 3.

In-orbit conjunctions

A list of the most updated potential collisions computed for object SPOT 3.

Target Orbit TCA Probability of collision Miss distance Type
METEOR 1-17 DEB LEO 2025-10-12 05:46:43 0.0001075305 339.0 (m) DEBRIS
FENGYUN 1C DEB SSO 2025-07-07 11:01:56 0.0003690325 652.0 (m) DEBRIS
NOAA 16 DEB SSO 2025-05-10 19:40:19 0.0005182556 563.0 (m) DEBRIS
COSMOS 1275 DEB LEO 2024-12-12 08:41:02 0.0001637362 237.0 (m) DEBRIS
FENGYUN 1C DEB SSO 2024-11-24 03:21:02 0.0001056115 425.0 (m) DEBRIS

Associated space launch

The satellites SPOT 1, 2 and 3 (Satellite Probatoire de l'Observation de la Terre) were the first generation of SPOT earth observation satellites operated by Spot Image.

SPOT 3 was lifted into orbit during the mission ‘Ariane 40 | SPOT 3’, on board a Ariane 40 space rocket.

The launch took place on Sept. 26, 1993, 1:45 a.m. from Ariane Launch Area 2.

For more information about the launch, click the button.

Launch to space Ariane 40 | SPOT 3
Ariane 40 | SPOT 3

Agency: N/A

Status: Launch Successful

Launch date: Sept. 26, 1993, 1:45 a.m. UTC

Rocket: Ariane 40

Launch pad: Ariane Launch Area 2

Location: Guiana Space Centre, French Guiana

...

Latest news about this satellite

There are no fresh news available about this satellite. Check back as we update our databases every day.


Newsletter sign-up

Weekly statistics, charts and insights to help you stay on top of the space industry.